Total_Precipitation_Accumulation
0.05 0.05 0.05 0.06 0.05 0.03 0.00 0.00 0.00 0.00 0.00 0.00 0.00 0.00 0.00 0.00 0.00 0.00 0.01 0.01 0.02 0.03 0.05 0.15 0.22 0.26 0.33 0.36 0.34 0.31 0.28 0.34 0.40 0.43 0.47 0.55 0.55 0.52 0.52 0.49 0.47 0.49 0.55 0.59 0.60 0.59 0.58 0.52 0.51
0.05 0.08 0.09 0.09 0.05 0.01 0.00 0.00 0.00 0.00 0.00 0.00 0.00 0.00 0.00 0.00 0.00 0.00 0.00 0.00 0.01 0.01 0.04 0.10 0.20 0.26 0.32 0.34 0.33 0.31 0.30 0.31 0.37 0.41 0.45 0.50 0.52 0.53 0.52 0.48 0.48 0.52 0.60 0.65 0.66 0.65 0.62 0.56 0.51
0.09 0.12 0.11 0.09 0.04 0.00 0.00 0.00 0.00 0.00 0.00 0.00 0.00 0.00 0.00 0.00 0.00 0.00 0.00 0.00 0.00 0.01 0.03 0.10 0.21 0.27 0.33 0.36 0.35 0.33 0.33 0.34 0.36 0.40 0.46 0.53 0.53 0.51 0.48 0.45 0.45 0.50 0.60 0.67 0.67 0.62 0.59 0.57 0.55
0.11 0.16 0.15 0.09 0.02 0.00 0.00 0.00 0.00 0.00 0.00 0.00 0.00 0.00 0.00 0.00 0.00 0.00 0.00 0.00 0.01 0.02 0.03 0.12 0.22 0.29 0.34 0.37 0.37 0.36 0.36 0.39 0.41 0.43 0.48 0.56 0.57 0.56 0.52 0.46 0.43 0.44 0.51 0.58 0.59 0.56 0.56 0.57 0.52
0.16 0.17 0.16 0.08 0.01 0.00 0.00 0.00 0.00 0.00 0.00 0.00 0.00 0.00 0.00 0.00 0.00 0.00 0.00 0.00 0.01 0.02 0.05 0.13 0.25 0.33 0.37 0.39 0.39 0.41 0.41 0.44 0.47 0.49 0.53 0.58 0.59 0.58 0.56 0.54 0.49 0.45 0.45 0.48 0.52 0.52 0.53 0.54 0.50
0.22 0.21 0.14 0.05 0.01 0.00 0.00 0.00 0.00 0.00 0.00 0.00 0.00 0.00 0.00 0.00 0.00 0.00 0.00 0.01 0.01 0.03 0.07 0.16 0.30 0.37 0.42 0.44 0.44 0.46 0.48 0.51 0.53 0.55 0.60 0.60 0.58 0.58 0.57 0.55 0.51 0.46 0.43 0.41 0.43 0.46 0.48 0.49 0.48
0.22 0.22 0.12 0.05 0.02 0.01 0.01 0.00 0.01 0.00 0.00 0.00 0.00 0.01 0.01 0.01 0.01 0.01 0.01 0.02 0.03 0.05 0.09 0.18 0.30 0.38 0.45 0.48 0.48 0.50 0.53 0.55 0.58 0.60 0.62 0.62 0.59 0.59 0.61 0.57 0.52 0.49 0.47 0.42 0.37 0.38 0.39 0.38 0.40
0.25 0.29 0.15 0.06 0.03 0.02 0.00 0.00 0.01 0.01 0.01 0.00 0.01 0.01 0.01 0.01 0.01 0.02 0.03 0.04 0.06 0.09 0.13 0.21 0.31 0.38 0.44 0.50 0.54 0.54 0.56 0.59 0.63 0.66 0.64 0.61 0.61 0.62 0.61 0.55 0.49 0.50 0.50 0.45 0.41 0.38 0.36 0.33 0.32
0.35 0.40 0.19 0.06 0.04 0.03 0.02 0.02 0.01 0.01 0.02 0.01 0.01 0.01 0.01 0.01 0.02 0.03 0.06 0.09 0.12 0.15 0.19 0.27 0.36 0.43 0.48 0.54 0.58 0.63 0.67 0.72 0.74 0.72 0.69 0.70 0.67 0.63 0.55 0.47 0.47 0.50 0.52 0.46 0.44 0.42 0.39 0.36 0.30
0.38 0.34 0.15 0.04 0.03 0.05 0.05 0.05 0.04 0.04 0.03 0.02 0.02 0.02 0.02 0.02 0.04 0.06 0.07 0.10 0.13 0.17 0.22 0.29 0.40 0.46 0.55 0.59 0.68 0.78 0.79 0.80 0.79 0.69 0.66 0.68 0.63 0.60 0.55 0.50 0.49 0.53 0.53 0.51 0.49 0.48 0.46 0.42 0.33
0.30 0.23 0.10 0.06 0.04 0.07 0.07 0.07 0.08 0.09 0.07 0.03 0.04 0.04 0.03 0.04 0.07 0.10 0.11 0.11 0.11 0.14 0.20 0.29 0.42 0.52 0.57 0.61 0.70 0.79 0.82 0.81 0.81 0.75 0.70 0.68 0.70 0.67 0.64 0.59 0.61 0.60 0.57 0.56 0.56 0.59 0.54 0.49 0.45
0.23 0.16 0.11 0.09 0.09 0.10 0.11 0.10 0.10 0.10 0.08 0.04 0.04 0.06 0.06 0.07 0.08 0.10 0.12 0.12 0.14 0.18 0.24 0.33 0.45 0.54 0.57 0.59 0.66 0.72 0.74 0.73 0.74 0.73 0.75 0.76 0.75 0.71 0.68 0.65 0.67 0.68 0.66 0.62 0.61 0.58 0.55 0.52 0.47
0.21 0.12 0.09 0.10 0.12 0.13 0.13 0.11 0.10 0.07 0.04 0.05 0.05 0.06 0.08 0.08 0.09 0.09 0.12 0.17 0.18 0.20 0.27 0.39 0.47 0.55 0.62 0.65 0.69 0.73 0.70 0.66 0.68 0.72 0.76 0.71 0.66 0.60 0.55 0.54 0.54 0.50 0.49 0.49 0.51 0.53 0.52 0.50 0.47
0.17 0.12 0.09 0.11 0.12 0.14 0.15 0.11 0.09 0.05 0.03 0.05 0.07 0.07 0.07 0.08 0.09 0.11 0.13 0.18 0.23 0.24 0.30 0.43 0.52 0.59 0.67 0.66 0.68 0.70 0.69 0.66 0.69 0.68 0.66 0.65 0.61 0.56 0.50 0.47 0.47 0.44 0.40 0.37 0.37 0.38 0.40 0.41 0.39
0.20 0.21 0.15 0.09 0.10 0.12 0.19 0.18 0.07 0.04 0.04 0.07 0.09 0.08 0.07 0.08 0.10 0.11 0.12 0.14 0.20 0.26 0.34 0.45 0.56 0.68 0.74 0.72 0.73 0.76 0.74 0.71 0.69 0.68 0.64 0.64 0.61 0.58 0.56 0.50 0.46 0.44 0.44 0.43 0.41 0.41 0.39 0.36 0.34
0.30 0.35 0.26 0.10 0.08 0.12 0.27 0.23 0.06 0.04 0.08 0.10 0.10 0.09 0.09 0.08 0.10 0.13 0.15 0.16 0.20 0.29 0.40 0.49 0.61 0.76 0.83 0.81 0.81 0.79 0.79 0.80 0.76 0.72 0.69 0.65 0.61 0.57 0.57 0.55 0.51 0.50 0.52 0.52 0.51 0.46 0.44 0.40 0.36
0.41 0.37 0.22 0.09 0.08 0.15 0.27 0.20 0.05 0.05 0.09 0.10 0.11 0.11 0.10 0.10 0.11 0.14 0.17 0.19 0.21 0.29 0.40 0.51 0.61 0.76 0.88 0.93 0.90 0.88 0.82 0.84 0.84 0.78 0.72 0.69 0.63 0.58 0.56 0.55 0.56 0.59 0.63 0.61 0.57 0.53 0.47 0.44 0.41
0.38 0.25 0.16 0.09 0.08 0.14 0.19 0.14 0.06 0.06 0.10 0.10 0.11 0.13 0.12 0.14 0.15 0.17 0.20 0.23 0.25 0.29 0.39 0.51 0.64 0.81 0.93 1.10 1.12 1.09 1.01 0.90 0.88 0.85 0.74 0.68 0.67 0.63 0.61 0.59 0.59 0.64 0.68 0.66 0.63 0.55 0.49 0.46 0.46
0.25 0.25 0.18 0.07 0.06 0.15 0.15 0.10 0.08 0.08 0.10 0.11 0.12 0.14 0.15 0.16 0.19 0.21 0.26 0.33 0.35 0.37 0.43 0.51 0.66 0.82 0.99 1.12 1.20 1.16 1.10 0.95 0.89 0.87 0.82 0.73 0.69 0.71 0.71 0.65 0.66 0.65 0.67 0.64 0.62 0.62 0.59 0.53 0.50
0.28 0.32 0.23 0.13 0.08 0.17 0.17 0.10 0.07 0.08 0.11 0.13 0.13 0.16 0.18 0.16 0.18 0.19 0.24 0.35 0.41 0.43 0.46 0.50 0.62 0.74 0.92 1.04 1.09 1.16 1.10 1.02 0.92 0.89 0.87 0.79 0.70 0.73 0.80 0.74 0.69 0.67 0.66 0.68 0.69 0.67 0.67 0.66 0.59
0.32 0.29 0.23 0.19 0.16 0.20 0.24 0.17 0.06 0.05 0.07 0.10 0.11 0.13 0.16 0.18 0.18 0.19 0.23 0.32 0.41 0.45 0.49 0.54 0.58 0.66 0.78 1.03 1.25 1.37 1.41 1.29 1.13 1.01 0.92 0.82 0.74 0.68 0.76 0.80 0.75 0.71 0.69 0.66 0.65 0.65 0.64 0.67 0.61
0.36 0.19 0.20 0.24 0.37 0.38 0.33 0.35 0.08 0.04 0.05 0.07 0.09 0.10 0.11 0.15 0.15 0.16 0.20 0.28 0.36 0.44 0.54 0.63 0.61 0.68 0.78 0.96 1.25 1.42 1.46 1.34 1.08 0.93 0.90 0.87 0.81 0.73 0.70 0.78 0.80 0.78 0.76 0.71 0.66 0.64 0.64 0.69 0.72
0.27 0.19 0.23 0.28 0.46 0.55 0.38 0.43 0.14 0.06 0.08 0.06 0.06 0.08 0.09 0.12 0.14 0.14 0.17 0.22 0.31 0.44 0.56 0.68 0.73 0.78 0.87 0.95 1.13 1.36 1.47 1.39 1.25 1.11 1.00 0.93 0.91 0.86 0.78 0.75 0.79 0.80 0.80 0.79 0.74 0.69 0.70 0.72 0.76
0.24 0.30 0.38 0.46 0.77 1.02 0.37 0.35 0.21 0.12 0.13 0.10 0.08 0.09 0.10 0.13 0.15 0.13 0.14 0.17 0.27 0.42 0.51 0.67 0.79 0.82 0.94 0.99 1.10 1.23 1.40 1.50 1.47 1.36 1.22 1.08 1.01 0.96 0.93 0.81 0.78 0.80 0.81 0.82 0.79 0.73 0.72 0.74 0.74
0.45 0.79 1.20 1.29 1.39 0.88 0.18 0.25 0.23 0.12 0.09 0.12 0.14 0.12 0.12 0.12 0.14 0.14 0.13 0.14 0.22 0.39 0.50 0.63 0.79 0.80 0.89 0.96 1.05 1.17 1.31 1.46 1.57 1.48 1.31 1.21 1.16 1.07 0.97 0.92 0.83 0.81 0.80 0.80 0.81 0.81 0.76 0.72 0.77
0.49 0.74 1.05 0.97 0.61 0.23 0.11 0.19 0.18 0.11 0.07 0.06 0.08 0.11 0.12 0.12 0.12 0.14 0.14 0.14 0.18 0.28 0.41 0.54 0.75 0.77 0.79 0.87 0.96 1.10 1.27 1.45 1.54 1.56 1.40 1.28 1.20 1.09 0.97 0.93 0.87 0.82 0.83 0.86 0.85 0.83 0.81 0.76 0.74
0.47 0.51 0.47 0.70 0.51 0.30 0.21 0.17 0.13 0.07 0.04 0.04 0.05 0.06 0.09 0.12 0.11 0.12 0.15 0.15 0.19 0.24 0.34 0.47 0.70 0.78 0.72 0.79 0.88 1.00 1.15 1.36 1.45 1.48 1.47 1.35 1.27 1.20 1.12 1.04 0.99 0.92 0.90 0.89 0.90 0.87 0.82 0.81 0.82
0.40 0.49 0.54 0.90 0.88 0.53 0.30 0.18 0.19 0.13 0.08 0.06 0.06 0.07 0.09 0.10 0.10 0.10 0.13 0.14 0.17 0.22 0.31 0.44 0.61 0.79 0.77 0.77 0.83 0.92 1.01 1.17 1.32 1.43 1.52 1.41 1.34 1.30 1.31 1.25 1.19 1.09 1.05 1.02 0.99 0.95 0.86 0.85 0.85
0.47 0.61 0.78 0.82 0.65 0.54 0.41 0.29 0.25 0.19 0.14 0.11 0.09 0.08 0.08 0.09 0.10 0.10 0.12 0.12 0.15 0.18 0.25 0.41 0.55 0.69 0.83 0.85 0.83 0.91 0.99 1.12 1.21 1.25 1.33 1.41 1.41 1.36 1.42 1.46 1.40 1.32 1.22 1.19 1.17 1.12 1.04 0.99 0.91
0.51 0.59 0.69 0.86 0.66 0.37 0.38 0.33 0.22 0.15 0.13 0.12 0.10 0.08 0.07 0.08 0.09 0.10 0.11 0.12 0.13 0.16 0.22 0.34 0.51 0.64 0.76 0.86 0.89 0.91 0.99 1.12 1.18 1.14 1.13 1.20 1.31 1.34 1.39 1.56 1.58 1.51 1.41 1.32 1.34 1.34 1.25 1.20 1.12